Date String (YYYY-MM-DD hh:mm:ss) UTC,Instrument flags,Ambient pressure (hPa),Sample flow (lpm),Bypass flow (lpm),Sample temperature (°C),Ambient temperature (°C),ASC tube jacket temperature (°C),LED temperature (°C),Box temperature (°C),Sample RH (%),Span deviation,Mass concentration (μg/m³),Mass concentration (μg/m³),Mass concentration (μg/m³)
DateTimeUTC,F1_M11,P_M11,Q1_M11,Q2_M11,T1_M11,T2_M11,T3_M11,T4_M11,T5_M11,U1_M11,ZSPAN_M11,X0_M11,X2_M11,X1_M11
2021-11-26 10:00:00,,0829.5,5.01,0.00,26.5,25.6,00.0,35.4,28.3,09.2,0000.0,0001.02,0000.49,0000.32
2021-11-26 10:01:00,,0829.5,4.99,0.00,26.5,25.6,00.0,35.4,28.3,09.2,0000.0,0001.01,0000.50,0000.32
2021-11-26 10:02:00,,0829.5,5.00,0.00,26.5,25.6,00.0,35.4,28.3,08.9,0000.0,0000.99,0000.51,0000.33
2021-11-26 10:03:00,,0829.5,5.01,0.00,26.5,25.6,00.0,35.4,28.3,09.0,0000.0,0002.01,0000.50,0000.35
2021-11-26 10:04:00,,0829.5,4.98,0.00,26.5,25.6,00.0,35.4,28.3,09.0,0000.0,0002.10,0000.51,0000.35
2021-11-26 10:05:00,,0829.5,5.01,0.00,26.5,25.6,00.0,35.4,28.3,09.1,0000.0,0002.08,0000.53,0000.36
2021-11-26 10:06:00,,0829.5,4.99,0.00,26.5,25.6,00.0,35.4,28.2,08.9,0000.0,0002.30,0000.55,0000.36
2021-11-26 10:07:00,,0829.5,5.00,0.00,26.5,25.6,00.0,35.4,28.2,09.0,0000.0,0002.51,0000.59,0000.37
2021-11-26 10:08:00,,0829.5,4.99,0.00,26.5,25.6,00.0,35.4,28.2,08.9,0000.0,0002.47,0000.59,0000.37
2021-11-26 10:09:00,,0829.5,5.02,0.00,26.5,25.6,00.0,35.4,28.2,08.8,0000.0,0002.53,0000.61,0000.37
2021-11-26 10:10:00,,0829.5,5.00,0.00,26.5,25.6,00.0,35.4,28.2,08.9,0000.0,0002.74,0000.65,0000.38
2021-11-26 10:11:00,,0829.5,4.99,0.00,26.5,25.6,00.0,35.4,28.3,08.9,0000.0,0002.83,0000.67,0000.39
2021-11-26 10:12:00,,0829.5,5.00,0.00,26.5,25.6,00.0,35.4,28.3,08.9,0000.0,0002.97,0000.68,0000.40
2021-11-26 10:13:00,,0829.5,5.01,0.00,26.5,25.6,00.0,35.4,28.3,08.9,0000.0,0003.01,0000.68,0000.39
2021-11-26 10:14:00,,0829.5,5.00,0.00,26.4,25.6,00.0,35.5,28.3,08.8,0000.0,0002.94,0000.70,0000.39
2021-11-26 10:15:00,,0829.5,4.99,0.00,26.4,25.6,00.0,35.4,28.3,08.8,0000.0,0003.56,0000.70,0000.39
2021-11-26 10:16:00,,0829.5,5.02,0.00,26.4,25.6,00.0,35.4,28.2,08.8,0000.0,0003.59,0000.71,0000.40
2021-11-26 10:17:00,,0829.5,4.99,0.00,26.4,25.6,00.0,35.4,28.2,08.8,0000.0,0003.47,0000.73,0000.40
2021-11-26 10:18:00,,0829.5,5.00,0.00,26.4,25.6,00.0,35.4,28.2,08.8,0000.0,0003.20,0000.70,0000.40
2021-11-26 10:19:00,,0829.6,4.99,0.00,26.4,25.6,00.0,35.4,28.2,08.8,0000.0,0003.29,0000.72,0000.40
2021-11-26 10:20:00,,0829.6,5.00,0.00,26.4,25.6,00.0,35.4,28.2,08.8,0000.0,0003.43,0000.74,0000.41
2021-11-26 10:21:00,,0829.5,4.99,0.00,26.4,25.6,00.0,35.4,28.2,08.8,0000.0,0003.40,0000.73,0000.41
2021-11-26 10:22:00,,0829.6,5.01,0.00,26.4,25.6,00.0,35.4,28.2,08.8,0000.0,0003.44,0000.75,0000.42
2021-11-26 10:23:00,,0829.6,4.99,0.00,26.4,25.6,00.0,35.4,28.2,08.8,0000.0,0003.33,0000.75,0000.42
2021-11-26 10:24:00,,0829.6,5.01,0.00,26.4,25.6,00.0,35.4,28.2,08.8,0000.0,0003.33,0000.77,0000.42
2021-11-26 10:25:00,,0829.6,5.00,0.00,26.4,25.5,00.0,35.4,28.2,08.8,0000.0,0002.44,0000.74,0000.43
2021-11-26 10:26:00,,0829.5,5.00,0.00,26.4,25.5,00.0,35.4,28.2,08.9,0000.0,0001.61,0000.74,0000.44
2021-11-26 10:27:00,,0829.5,5.00,0.00,26.4,25.5,00.0,35.4,28.2,08.9,0000.0,0001.69,0000.74,0000.45
2021-11-26 10:28:00,,0829.4,5.00,0.00,26.4,25.5,00.0,35.4,28.2,08.8,0000.0,0002.07,0000.74,0000.46
2021-11-26 10:29:00,,0829.5,4.99,0.00,26.4,25.5,00.0,35.4,28.2,08.9,0000.0,0002.11,0000.73,0000.46
2021-11-26 10:30:00,,0829.5,5.00,0.00,26.4,25.5,00.0,35.4,28.2,08.9,0000.0,0002.10,0000.73,0000.46
2021-11-26 10:31:00,,0829.5,5.00,0.00,26.4,25.5,00.0,35.4,28.2,08.9,0000.0,0001.92,0000.70,0000.45
2021-11-26 10:32:00,,0829.5,5.00,0.00,26.4,25.5,00.0,35.4,28.2,09.0,0000.0,0001.78,0000.67,0000.45
2021-11-26 10:33:00,,0829.4,4.99,0.00,26.4,25.5,00.0,35.4,28.2,09.0,0000.0,0001.85,0000.69,0000.45
2021-11-26 10:34:00,,0829.4,5.01,0.00,26.4,25.5,00.0,35.4,28.2,08.9,0000.0,0001.89,0000.70,0000.45
2021-11-26 10:35:00,,0829.5,4.99,0.00,26.4,25.5,00.0,35.4,28.2,08.9,0000.0,0001.93,0000.71,0000.45
2021-11-26 10:36:00,,0829.5,5.00,0.00,26.4,25.5,00.0,35.4,28.2,08.9,0000.0,0002.03,0000.74,0000.46
2021-11-26 10:37:00,,0829.5,5.00,0.00,26.4,25.5,00.0,35.4,28.2,08.9,0000.0,0002.05,0000.76,0000.45
2021-11-26 10:38:00,,0829.5,4.99,0.00,26.4,25.5,00.0,35.4,28.2,09.0,0000.0,0001.98,0000.76,0000.44
2021-11-26 10:39:00,,0829.5,5.00,0.00,26.4,25.5,00.0,35.4,28.2,09.0,0000.0,0001.54,0000.75,0000.43
2021-11-26 10:40:00,,0829.5,4.99,0.00,26.4,25.5,00.0,35.4,28.2,09.0,0000.0,0001.43,0000.74,0000.42
2021-11-26 10:41:00,,0829.5,5.00,0.00,26.4,25.5,00.0,35.4,28.2,09.0,0000.0,0001.42,0000.74,0000.42
2021-11-26 10:42:00,,0829.5,5.00,0.00,26.4,25.5,00.0,35.4,28.2,09.0,0000.0,0001.45,0000.75,0000.42
2021-11-26 10:43:00,,0829.5,5.01,0.00,26.4,25.5,00.0,35.4,28.2,09.1,0000.0,0001.61,0000.78,0000.43
2021-11-26 10:44:00,,0829.5,5.00,0.00,26.4,25.5,00.0,35.4,28.2,09.1,0000.0,0001.56,0000.78,0000.43
2021-11-26 10:45:00,,0829.5,4.98,0.00,26.4,25.5,00.0,35.4,28.2,09.0,0000.0,0001.56,0000.79,0000.43
2021-11-26 10:46:00,,0829.5,5.02,0.00,26.4,25.5,00.0,35.4,28.2,08.9,0000.0,0001.53,0000.79,0000.43
2021-11-26 10:47:00,,0829.5,5.00,0.00,26.4,25.5,00.0,35.4,28.2,09.0,0000.0,0001.44,0000.76,0000.44
2021-11-26 10:48:00,,0829.5,4.99,0.00,26.4,25.5,00.0,35.4,28.2,08.9,0000.0,0001.43,0000.76,0000.44
2021-11-26 10:49:00,,0829.5,5.00,0.00,26.4,25.5,00.0,35.4,28.2,08.9,0000.0,0001.43,0000.74,0000.44
2021-11-26 10:50:00,,0829.5,4.99,0.00,26.4,25.5,00.0,35.4,28.2,09.0,0000.0,0001.47,0000.74,0000.45
2021-11-26 10:51:00,,0829.5,5.01,0.00,26.4,25.5,00.0,35.4,28.2,09.0,0000.0,0001.49,0000.75,0000.45
2021-11-26 10:52:00,,0829.5,5.01,0.00,26.4,25.5,00.0,35.4,28.1,09.0,0000.0,0001.50,0000.76,0000.46
2021-11-26 10:53:00,,0829.5,4.98,0.00,26.4,25.5,00.0,35.4,28.1,09.0,0000.0,0001.51,0000.77,0000.46
2021-11-26 10:54:00,,0829.5,4.99,0.00,26.4,25.5,00.0,35.4,28.1,09.0,0000.0,0001.33,0000.73,0000.45
2021-11-26 10:55:00,,0829.5,5.01,0.00,26.4,25.5,00.0,35.4,28.1,09.0,0000.0,0001.24,0000.69,0000.45
2021-11-26 10:56:00,,0829.5,4.99,0.00,26.4,25.5,00.0,35.4,28.1,09.0,0000.0,0001.95,0000.72,0000.46
2021-11-26 10:57:00,,0829.5,5.00,0.00,26.4,25.5,00.0,35.4,28.1,09.1,0000.0,0001.99,0000.73,0000.46
2021-11-26 10:58:00,,0829.5,4.99,0.00,26.4,25.5,00.0,35.4,28.1,09.2,0000.0,0002.03,0000.74,0000.45
2021-11-26 10:59:00,,0829.4,5.02,0.00,26.4,25.5,00.0,35.4,28.1,09.2,0000.0,0002.00,0000.72,0000.45
